Time,TemperatureF,DewpointF,PressureIn,WindDirection,WindDirectionDegrees,WindSpeedMPH,WindSpeedGustMPH,Humidity,HourlyPrecipIn,Conditions,Clouds,dailyrainin,SoftwareType,DateUTC
2013-06-26 00:00:00,78.2,75.4,30.05,West,277,5.0,11.0,91,0.00,,---,0.00,VWS V14.01,2013-06-26 04:00:00,
2013-06-26 00:01:00,78.2,75.4,30.04,WSW,254,6.0,13.0,91,0.00,,---,0.00,VWS V14.01,2013-06-26 04:01:00,
2013-06-26 00:02:00,78.2,75.4,30.04,WSW,240,6.0,13.0,91,0.00,,---,0.00,VWS V14.01,2013-06-26 04:02:00,
2013-06-26 00:07:00,78.2,75.4,30.04,WSW,240,9.0,13.0,91,0.00,,---,0.00,VWS V14.01,2013-06-26 04:07:00,
2013-06-26 00:12:00,78.1,75.3,30.04,WSW,241,10.0,13.0,91,0.00,,---,0.00,VWS V14.01,2013-06-26 04:12:00,
2013-06-26 00:17:00,78.1,75.3,30.04,WSW,256,6.0,13.0,91,0.00,,---,0.00,VWS V14.01,2013-06-26 04:17:00,
2013-06-26 00:22:00,78.1,75.3,30.04,West,269,6.0,13.0,91,0.00,,---,0.00,VWS V14.01,2013-06-26 04:22:00,
2013-06-26 00:28:00,78.0,75.2,30.04,West,266,5.0,7.0,91,0.00,,---,0.00,VWS V14.01,2013-06-26 04:28:00,
2013-06-26 00:33:00,78.0,75.2,30.03,West,259,9.0,11.0,91,0.00,,---,0.00,VWS V14.01,2013-06-26 04:33:00,
2013-06-26 00:38:00,78.0,75.2,30.04,WSW,256,4.0,11.0,91,0.00,,---,0.00,VWS V14.01,2013-06-26 04:38:00,
2013-06-26 00:43:00,78.0,75.2,30.04,WSW,250,4.0,11.0,91,0.00,,---,0.00,VWS V14.01,2013-06-26 04:43:00,
2013-06-26 00:48:00,78.0,75.2,30.04,West,262,5.0,11.0,91,0.00,,---,0.00,VWS V14.01,2013-06-26 04:48:00,
2013-06-26 00:53:00,78.0,75.2,30.04,West,265,5.0,11.0,91,0.00,,---,0.00,VWS V14.01,2013-06-26 04:53:00,
2013-06-26 00:58:00,78.0,75.2,30.04,WNW,283,7.0,10.0,91,0.00,,---,0.00,VWS V14.01,2013-06-26 04:58:00,
2013-06-26 01:03:00,78.0,75.2,30.04,WSW,254,4.0,11.0,91,0.00,,---,0.00,VWS V14.01,2013-06-26 05:03:00,
2013-06-26 01:08:00,78.0,75.2,30.03,WSW,242,7.0,11.0,91,0.00,,---,0.00,VWS V14.01,2013-06-26 05:08:00,
2013-06-26 01:13:00,78.0,75.2,30.03,SW,228,5.0,11.0,91,0.00,,---,0.00,VWS V14.01,2013-06-26 05:13:00,
2013-06-26 01:18:00,78.1,75.3,30.03,West,265,6.0,12.0,91,0.00,,---,0.00,VWS V14.01,2013-06-26 05:18:00,
2013-06-26 01:23:00,78.1,75.6,30.03,WSW,247,7.0,12.0,92,0.00,,---,0.00,VWS V14.01,2013-06-26 05:23:00,
2013-06-26 01:28:00,78.2,75.7,30.03,SW,232,4.0,7.0,92,0.00,,---,0.00,VWS V14.01,2013-06-26 05:28:00,
2013-06-26 01:33:00,78.3,75.8,30.03,SW,236,10.0,10.0,92,0.00,,---,0.00,VWS V14.01,2013-06-26 05:33:00,
2013-06-26 01:38:00,78.3,75.8,30.03,SSW,205,4.0,11.0,92,0.00,,---,0.00,VWS V14.01,2013-06-26 05:38:00,
2013-06-26 01:43:00,78.3,75.8,30.03,WSW,238,6.0,11.0,92,0.00,,---,0.00,VWS V14.01,2013-06-26 05:43:00,
2013-06-26 01:49:00,78.3,75.8,30.03,WSW,248,4.0,11.0,92,0.00,,---,0.00,VWS V14.01,2013-06-26 05:49:00,
2013-06-26 01:54:00,78.2,75.7,30.03,WSW,240,4.0,11.0,92,0.00,,---,0.00,VWS V14.01,2013-06-26 05:54:00,
2013-06-26 01:59:00,78.2,75.7,30.03,WSW,239,4.0,9.0,92,0.00,,---,0.00,VWS V14.01,2013-06-26 05:59:00,
2013-06-26 02:04:00,78.2,76.0,30.03,SW,232,3.0,9.0,93,0.00,,---,0.00,VWS V14.01,2013-06-26 06:04:00,
2013-06-26 02:09:00,78.1,75.9,30.02,SW,232,6.0,9.0,93,0.00,,---,0.00,VWS V14.01,2013-06-26 06:09:00,
2013-06-26 02:14:00,77.9,75.7,30.03,SW,230,4.0,10.0,93,0.00,,---,0.00,VWS V14.01,2013-06-26 06:14:00,
2013-06-26 02:19:00,77.8,75.6,30.03,WSW,250,5.0,10.0,93,0.00,,---,0.00,VWS V14.01,2013-06-26 06:19:00,
2013-06-26 02:24:00,77.8,75.6,30.03,SW,227,5.0,10.0,93,0.00,,---,0.00,VWS V14.01,2013-06-26 06:24:00,
2013-06-26 02:29:00,77.7,75.5,30.03,WSW,253,4.0,6.0,93,0.00,,---,0.00,VWS V14.01,2013-06-26 06:29:00,
2013-06-26 02:34:00,77.7,75.5,30.03,WSW,238,3.0,6.0,93,0.00,,---,0.00,VWS V14.01,2013-06-26 06:34:00,
2013-06-26 02:39:00,77.6,75.4,30.02,WSW,243,5.0,7.0,93,0.00,,---,0.00,VWS V14.01,2013-06-26 06:39:00,
2013-06-26 02:44:00,77.6,75.4,30.02,WSW,256,5.0,7.0,93,0.00,,---,0.00,VWS V14.01,2013-06-26 06:44:00,
2013-06-26 02:49:00,77.5,75.3,30.03,SW,229,4.0,7.0,93,0.00,,---,0.00,VWS V14.01,2013-06-26 06:49:00,
2013-06-26 02:54:00,77.4,75.2,30.03,SW,234,4.0,7.0,93,0.00,,---,0.00,VWS V14.01,2013-06-26 06:54:00,
2013-06-26 02:59:00,77.4,75.2,30.03,West,267,4.0,6.0,93,0.00,,---,0.00,VWS V14.01,2013-06-26 06:59:00,
2013-06-26 03:04:00,77.4,75.2,30.02,WSW,252,3.0,8.0,93,0.00,,---,0.00,VWS V14.01,2013-06-26 07:04:00,
2013-06-26 03:09:00,77.3,75.1,30.02,SW,234,3.0,8.0,93,0.00,,---,0.00,VWS V14.01,2013-06-26 07:09:00,
2013-06-26 03:14:00,77.2,75.0,30.02,West,261,4.0,8.0,93,0.00,,---,0.00,VWS V14.01,2013-06-26 07:14:00,
2013-06-26 03:19:00,77.1,75.2,30.02,SW,222,5.0,8.0,94,0.00,,---,0.00,VWS V14.01,2013-06-26 07:19:00,
2013-06-26 03:24:00,77.1,75.2,30.02,SW,229,4.0,8.0,94,0.00,,---,0.00,VWS V14.01,2013-06-26 07:24:00,
2013-06-26 03:29:00,77.0,75.1,30.02,WSW,251,5.0,7.0,94,0.00,,---,0.00,VWS V14.01,2013-06-26 07:29:00,
2013-06-26 03:34:00,76.9,75.1,30.02,WSW,242,3.0,7.0,94,0.00,,---,0.00,VWS V14.01,2013-06-26 07:34:00,
2013-06-26 03:39:00,76.9,75.1,30.02,SW,233,4.0,10.0,94,0.00,,---,0.00,VWS V14.01,2013-06-26 07:39:00,
2013-06-26 03:44:00,76.9,75.1,30.02,WSW,254,5.0,10.0,94,0.00,,---,0.00,VWS V14.01,2013-06-26 07:44:00,
2013-06-26 03:49:00,76.9,75.1,30.02,WSW,245,4.0,10.0,94,0.00,,---,0.00,VWS V14.01,2013-06-26 07:49:00,
2013-06-26 03:54:00,76.9,75.1,30.02,SW,235,5.0,10.0,94,0.00,,---,0.00,VWS V14.01,2013-06-26 07:54:00,
2013-06-26 03:59:00,76.9,75.1,30.02,WSW,238,6.0,7.0,94,0.00,,---,0.00,VWS V14.01,2013-06-26 07:59:00,
2013-06-26 04:05:00,76.9,75.1,30.03,WSW,244,3.0,7.0,94,0.00,,---,0.00,VWS V14.01,2013-06-26 08:05:00,
2013-06-26 04:10:00,76.9,75.1,30.02,WSW,242,2.0,7.0,94,0.00,,---,0.00,VWS V14.01,2013-06-26 08:10:00,
2013-06-26 04:15:00,76.9,75.1,30.03,WSW,239,4.0,7.0,94,0.00,,---,0.00,VWS V14.01,2013-06-26 08:15:00,
2013-06-26 04:20:00,76.9,75.1,30.02,WSW,242,3.0,7.0,94,0.00,,---,0.00,VWS V14.01,2013-06-26 08:20:00,
2013-06-26 04:25:00,76.9,75.1,30.02,SW,220,4.0,9.0,94,0.00,,---,0.00,VWS V14.01,2013-06-26 08:25:00,
2013-06-26 04:30:00,76.9,75.1,30.02,WSW,238,5.0,9.0,94,0.00,,---,0.00,VWS V14.01,2013-06-26 08:30:00,
2013-06-26 04:35:00,77.0,75.1,30.03,SW,230,9.0,9.0,94,0.00,,---,0.00,VWS V14.01,2013-06-26 08:35:00,
2013-06-26 04:39:00,77.0,75.1,30.02,SW,233,6.0,10.0,94,0.00,,---,0.00,VWS V14.01,2013-06-26 08:39:00,
2013-06-26 04:44:00,77.0,75.1,30.02,WSW,248,0.0,10.0,94,0.00,,---,0.00,VWS V14.01,2013-06-26 08:44:00,
2013-06-26 04:49:00,77.1,75.2,30.02,WSW,247,5.0,10.0,94,0.00,,---,0.00,VWS V14.01,2013-06-26 08:49:00,
2013-06-26 04:54:00,77.1,75.2,30.02,West,259,4.0,10.0,94,0.00,,---,0.00,VWS V14.01,2013-06-26 08:54:00,
2013-06-26 04:59:00,77.0,75.1,30.02,SW,226,5.0,10.0,94,0.00,,---,0.00,VWS V14.01,2013-06-26 08:59:00,
2013-06-26 05:04:00,77.1,75.2,30.03,WSW,240,7.0,11.0,94,0.00,,---,0.00,VWS V14.01,2013-06-26 09:04:00,
2013-06-26 05:09:00,77.1,75.2,30.03,SW,229,6.0,11.0,94,0.00,,---,0.00,VWS V14.01,2013-06-26 09:09:00,
2013-06-26 05:14:00,77.1,75.2,30.03,WSW,242,7.0,11.0,94,0.00,,---,0.00,VWS V14.01,2013-06-26 09:14:00,
2013-06-26 05:19:00,77.1,75.2,30.03,SW,234,2.0,11.0,94,0.00,,---,0.00,VWS V14.01,2013-06-26 09:19:00,
2013-06-26 05:24:00,77.0,75.1,30.02,SW,227,6.0,11.0,94,0.00,,---,0.00,VWS V14.01,2013-06-26 09:24:00,
2013-06-26 05:29:00,77.1,75.2,30.03,West,261,5.0,10.0,94,0.00,,---,0.00,VWS V14.01,2013-06-26 09:29:00,
2013-06-26 05:34:00,77.1,75.2,30.03,SW,232,6.0,11.0,94,0.00,,---,0.00,VWS V14.01,2013-06-26 09:34:00,
2013-06-26 05:39:00,77.1,75.2,30.03,SW,227,5.0,11.0,94,0.00,,---,0.00,VWS V14.01,2013-06-26 09:39:00,
2013-06-26 05:45:00,77.1,75.2,30.03,SW,233,6.0,11.0,94,0.00,,---,0.00,VWS V14.01,2013-06-26 09:45:00,
2013-06-26 05:50:00,77.1,75.2,30.03,WSW,242,7.0,11.0,94,0.00,,---,0.00,VWS V14.01,2013-06-26 09:50:00,
2013-06-26 05:55:00,77.1,75.2,30.03,SW,229,5.0,11.0,94,0.00,,---,0.00,VWS V14.01,2013-06-26 09:55:00,
2013-06-26 06:00:00,77.1,75.2,30.03,SW,234,8.0,10.0,94,0.00,,---,0.00,VWS V14.01,2013-06-26 10:00:00,
2013-06-26 06:05:00,77.1,75.2,30.03,SW,224,6.0,11.0,94,0.00,,---,0.00,VWS V14.01,2013-06-26 10:05:00,
2013-06-26 06:10:00,77.0,75.1,30.04,SW,225,5.0,12.0,94,0.00,,---,0.00,VWS V14.01,2013-06-26 10:10:00,
2013-06-26 06:15:00,77.0,75.1,30.04,SW,236,8.0,12.0,94,0.00,,---,0.00,VWS V14.01,2013-06-26 10:15:00,
2013-06-26 06:20:00,77.0,75.1,30.04,WSW,246,4.0,12.0,94,0.00,,---,0.00,VWS V14.01,2013-06-26 10:20:00,
2013-06-26 06:25:00,77.1,75.2,30.03,SW,229,7.0,12.0,94,0.00,,---,0.00,VWS V14.01,2013-06-26 10:25:00,
2013-06-26 06:30:00,77.1,75.2,30.04,WSW,248,8.0,10.0,94,0.00,,---,0.00,VWS V14.01,2013-06-26 10:30:00,
2013-06-26 06:35:00,77.1,75.2,30.04,SW,235,3.0,10.0,94,0.00,,---,0.00,VWS V14.01,2013-06-26 10:35:00,
2013-06-26 06:40:00,77.1,75.2,30.04,SW,234,7.0,10.0,94,0.00,,---,0.00,VWS V14.01,2013-06-26 10:40:00,
2013-06-26 06:45:00,77.1,75.2,30.04,SW,227,5.0,10.0,94,0.00,,---,0.00,VWS V14.01,2013-06-26 10:45:00,
2013-06-26 06:50:00,77.1,75.2,30.04,West,266,4.0,13.0,94,0.00,,---,0.00,VWS V14.01,2013-06-26 10:50:00,
2013-06-26 06:55:00,77.1,74.9,30.04,SSW,212,6.0,13.0,93,0.00,,---,0.00,VWS V14.01,2013-06-26 10:55:00,
2013-06-26 07:00:00,77.1,74.9,30.04,SW,236,11.0,14.0,93,0.00,,---,0.00,VWS V14.01,2013-06-26 11:00:00,
2013-06-26 07:05:00,77.2,75.0,30.04,SW,223,6.0,14.0,93,0.00,,---,0.00,VWS V14.01,2013-06-26 11:05:00,
2013-06-26 07:10:00,77.2,75.0,30.04,WSW,240,5.0,14.0,93,0.00,,---,0.00,VWS V14.01,2013-06-26 11:10:00,
2013-06-26 07:15:00,77.3,74.8,30.04,SW,230,6.0,14.0,92,0.00,,---,0.00,VWS V14.01,2013-06-26 11:15:00,
2013-06-26 07:20:00,77.3,74.8,30.05,WSW,246,5.0,14.0,92,0.00,,---,0.00,VWS V14.01,2013-06-26 11:20:00,
2013-06-26 07:25:00,77.4,74.9,30.05,WSW,257,9.0,14.0,92,0.00,,---,0.00,VWS V14.01,2013-06-26 11:25:00,
2013-06-26 07:30:00,77.5,75.0,30.04,SW,234,5.0,13.0,92,0.00,,---,0.00,VWS V14.01,2013-06-26 11:30:00,
2013-06-26 07:35:00,77.5,74.7,30.04,SW,230,11.0,14.0,91,0.00,,---,0.00,VWS V14.01,2013-06-26 11:35:00,
2013-06-26 07:40:00,77.7,74.9,30.04,West,275,10.0,14.0,91,0.00,,---,0.00,VWS V14.01,2013-06-26 11:40:00,
2013-06-26 07:45:00,77.8,75.0,30.04,West,267,11.0,14.0,91,0.00,,---,0.00,VWS V14.01,2013-06-26 11:45:00,
2013-06-26 07:50:00,77.9,74.7,30.04,West,276,5.0,15.0,90,0.00,,---,0.00,VWS V14.01,2013-06-26 11:50:00,
2013-06-26 07:55:00,78.1,74.9,30.04,West,270,10.0,15.0,90,0.00,,---,0.00,VWS V14.01,2013-06-26 11:55:00,
2013-06-26 08:00:00,78.1,74.6,30.04,West,271,14.0,15.0,89,0.00,,---,0.00,VWS V14.01,2013-06-26 12:00:00,
2013-06-26 08:05:00,78.2,74.7,30.04,West,272,15.0,18.0,89,0.00,,---,0.00,VWS V14.01,2013-06-26 12:05:00,
2013-06-26 08:10:00,78.3,74.5,30.04,West,276,13.0,18.0,88,0.00,,---,0.00,VWS V14.01,2013-06-26 12:10:00,
2013-06-26 08:15:00,78.4,74.6,30.05,West,273,14.0,18.0,88,0.00,,---,0.00,VWS V14.01,2013-06-26 12:15:00,
2013-06-26 08:20:00,78.5,74.3,30.04,West,275,13.0,18.0,87,0.00,,---,0.00,VWS V14.01,2013-06-26 12:20:00,
2013-06-26 08:26:00,78.8,74.6,30.04,West,262,11.0,18.0,87,0.00,,---,0.00,VWS V14.01,2013-06-26 12:26:00,
2013-06-26 08:31:00,78.8,74.3,30.04,West,277,15.0,19.0,86,0.00,,---,0.00,VWS V14.01,2013-06-26 12:31:00,
2013-06-26 08:36:00,78.8,74.3,30.04,SW,223,9.0,19.0,86,0.00,,---,0.00,VWS V14.01,2013-06-26 12:36:00,
2013-06-26 08:41:00,78.8,74.3,30.04,West,259,11.0,19.0,86,0.00,,---,0.00,VWS V14.01,2013-06-26 12:41:00,
2013-06-26 08:46:00,78.7,74.2,30.04,West,273,10.0,19.0,86,0.00,,---,0.00,VWS V14.01,2013-06-26 12:46:00,
2013-06-26 08:51:00,78.8,74.3,30.04,West,269,11.0,19.0,86,0.00,,---,0.00,VWS V14.01,2013-06-26 12:51:00,
2013-06-26 08:56:00,78.9,74.4,30.04,West,271,11.0,19.0,86,0.00,,---,0.00,VWS V14.01,2013-06-26 12:56:00,
2013-06-26 09:01:00,78.9,74.4,30.04,West,271,14.0,16.0,86,0.00,,---,0.00,VWS V14.01,2013-06-26 13:01:00,
2013-06-26 09:06:00,79.0,74.5,30.05,West,273,14.0,17.0,86,0.00,,---,0.00,VWS V14.01,2013-06-26 13:06:00,
2013-06-26 09:11:00,78.9,74.4,30.04,West,269,15.0,18.0,86,0.00,,---,0.00,VWS V14.01,2013-06-26 13:11:00,
2013-06-26 09:16:00,79.0,74.5,30.04,West,271,14.0,18.0,86,0.00,,---,0.00,VWS V14.01,2013-06-26 13:16:00,
2013-06-26 09:21:00,79.1,74.6,30.04,West,280,15.0,18.0,86,0.00,,---,0.00,VWS V14.01,2013-06-26 13:21:00,
2013-06-26 09:26:00,79.2,74.7,30.04,West,267,10.0,18.0,86,0.00,,---,0.00,VWS V14.01,2013-06-26 13:26:00,
2013-06-26 09:31:00,79.3,74.4,30.04,WSW,241,11.0,17.0,85,0.00,,---,0.00,VWS V14.01,2013-06-26 13:31:00,
2013-06-26 09:36:00,79.5,73.9,30.04,West,265,15.0,18.0,83,0.00,,---,0.00,VWS V14.01,2013-06-26 13:36:00,
2013-06-26 09:41:00,79.6,74.0,30.04,West,267,14.0,18.0,83,0.00,,---,0.00,VWS V14.01,2013-06-26 13:41:00,
2013-06-26 09:46:00,79.8,74.2,30.04,West,263,11.0,18.0,83,0.00,,---,0.00,VWS V14.01,2013-06-26 13:46:00,
2013-06-26 09:51:00,79.8,74.2,30.04,West,273,10.0,18.0,83,0.00,,---,0.00,VWS V14.01,2013-06-26 13:51:00,
2013-06-26 09:56:00,79.9,74.3,30.03,West,273,12.0,18.0,83,0.00,,---,0.00,VWS V14.01,2013-06-26 13:56:00,
2013-06-26 10:01:00,80.0,74.4,30.02,West,262,12.0,15.0,83,0.00,,---,0.00,VWS V14.01,2013-06-26 14:01:00,
2013-06-26 10:06:00,80.2,74.2,30.04,West,272,13.0,15.0,82,0.00,,---,0.00,VWS V14.01,2013-06-26 14:06:00,
2013-06-26 10:11:00,80.1,73.8,30.03,WSW,247,11.0,17.0,81,0.00,,---,0.00,VWS V14.01,2013-06-26 14:11:00,
2013-06-26 10:16:00,80.1,73.4,30.03,West,277,14.0,17.0,80,0.00,,---,0.00,VWS V14.01,2013-06-26 14:16:00,
2013-06-26 10:21:00,80.0,73.7,30.02,WNW,283,14.0,17.0,81,0.00,,---,0.00,VWS V14.01,2013-06-26 14:21:00,
2013-06-26 10:26:00,80.0,74.0,30.02,West,272,11.0,17.0,82,0.00,,---,0.00,VWS V14.01,2013-06-26 14:26:00,
2013-06-26 10:31:00,80.0,74.0,30.02,WNW,284,13.0,14.0,82,0.00,,---,0.00,VWS V14.01,2013-06-26 14:31:00,
2013-06-26 10:36:00,80.1,73.8,30.02,West,275,11.0,15.0,81,0.00,,---,0.00,VWS V14.01,2013-06-26 14:36:00,
2013-06-26 10:41:00,80.3,74.3,30.02,West,274,9.0,15.0,82,0.00,,---,0.00,VWS V14.01,2013-06-26 14:41:00,
2013-06-26 10:46:00,80.4,74.4,30.01,West,273,10.0,15.0,82,0.00,,---,0.00,VWS V14.01,2013-06-26 14:46:00,
2013-06-26 10:51:00,80.9,73.4,30.02,West,265,15.0,17.0,78,0.00,,---,0.00,VWS V14.01,2013-06-26 14:51:00,
2013-06-26 10:56:00,81.6,72.9,30.02,West,275,20.0,20.0,75,0.00,,---,0.00,VWS V14.01,2013-06-26 14:56:00,
2013-06-26 11:01:00,81.9,72.8,30.02,West,270,13.0,17.0,74,0.00,,---,0.00,VWS V14.01,2013-06-26 15:01:00,
2013-06-26 11:06:00,81.9,72.8,30.02,West,273,14.0,17.0,74,0.00,,---,0.00,VWS V14.01,2013-06-26 15:06:00,
2013-06-26 11:11:00,81.8,73.1,30.02,West,271,11.0,17.0,75,0.00,,---,0.00,VWS V14.01,2013-06-26 15:11:00,
2013-06-26 11:17:00,81.9,73.6,30.02,West,271,11.0,17.0,76,0.00,,---,0.00,VWS V14.01,2013-06-26 15:17:00,
2013-06-26 11:22:00,82.1,73.8,30.02,West,269,12.0,17.0,76,0.00,,---,0.00,VWS V14.01,2013-06-26 15:22:00,
2013-06-26 11:27:00,81.9,74.0,30.02,West,274,12.0,17.0,77,0.00,,---,0.00,VWS V14.01,2013-06-26 15:27:00,
2013-06-26 11:32:00,81.8,73.5,30.02,West,279,12.0,15.0,76,0.00,,---,0.00,VWS V14.01,2013-06-26 15:32:00,
2013-06-26 11:37:00,82.0,73.7,30.02,West,272,11.0,15.0,76,0.00,,---,0.00,VWS V14.01,2013-06-26 15:37:00,
2013-06-26 11:42:00,82.1,73.8,30.02,West,260,14.0,17.0,76,0.00,,---,0.00,VWS V14.01,2013-06-26 15:42:00,
2013-06-26 11:47:00,82.4,73.7,30.02,WSW,241,6.0,17.0,75,0.00,,---,0.00,VWS V14.01,2013-06-26 15:47:00,
2013-06-26 11:52:00,82.7,74.0,30.02,West,279,12.0,17.0,75,0.00,,---,0.00,VWS V14.01,2013-06-26 15:52:00,
2013-06-26 11:57:00,82.5,73.8,30.02,West,265,12.0,17.0,75,0.00,,---,0.00,VWS V14.01,2013-06-26 15:57:00,
2013-06-26 12:02:00,82.7,74.4,30.01,West,267,12.0,15.0,76,0.00,,---,0.00,VWS V14.01,2013-06-26 16:02:00,
2013-06-26 12:07:00,82.4,74.5,30.02,West,270,11.0,15.0,77,0.00,,---,0.00,VWS V14.01,2013-06-26 16:07:00,
2013-06-26 12:12:00,82.6,73.9,30.02,SSW,208,8.0,15.0,75,0.00,,---,0.00,VWS V14.01,2013-06-26 16:12:00,
2013-06-26 12:17:00,83.3,74.2,30.01,SW,230,13.0,16.0,74,0.00,,---,0.00,VWS V14.01,2013-06-26 16:17:00,
2013-06-26 12:22:00,83.9,73.9,30.02,SW,223,12.0,18.0,72,0.00,,---,0.00,VWS V14.01,2013-06-26 16:22:00,
2013-06-26 12:27:00,84.3,73.9,30.01,SSW,203,10.0,13.0,71,0.00,,---,0.00,VWS V14.01,2013-06-26 16:27:00,
2013-06-26 12:32:00,84.5,74.5,30.01,West,266,9.0,16.0,72,0.00,,---,0.00,VWS V14.01,2013-06-26 16:32:00,
2013-06-26 12:38:00,84.7,75.1,30.01,SSW,207,10.0,16.0,73,0.00,,---,0.00,VWS V14.01,2013-06-26 16:38:00,
2013-06-26 12:43:00,85.0,75.8,30.01,SSW,200,9.0,16.0,74,0.00,,---,0.00,VWS V14.01,2013-06-26 16:43:00,
2013-06-26 12:48:00,85.4,76.6,30.01,WSW,241,10.0,17.0,75,0.00,,---,0.00,VWS V14.01,2013-06-26 16:48:00,
2013-06-26 12:53:00,85.4,76.2,30.01,SSW,201,13.0,17.0,74,0.00,,---,0.00,VWS V14.01,2013-06-26 16:53:00,
2013-06-26 12:58:00,85.1,76.3,30.01,SSW,193,15.0,16.0,75,0.00,,---,0.00,VWS V14.01,2013-06-26 16:58:00,
2013-06-26 13:03:00,85.2,77.2,30.01,SSW,208,13.0,20.0,77,0.00,,---,0.00,VWS V14.01,2013-06-26 17:03:00,
2013-06-26 13:08:00,85.0,77.4,30.01,SSW,207,15.0,20.0,78,0.00,,---,0.00,VWS V14.01,2013-06-26 17:08:00,
2013-06-26 13:13:00,84.7,77.5,30.01,SSW,207,13.0,20.0,79,0.00,,---,0.00,VWS V14.01,2013-06-26 17:13:00,
2013-06-26 13:18:00,84.2,77.4,30.01,SW,224,13.0,22.0,80,0.00,,---,0.00,VWS V14.01,2013-06-26 17:18:00,
2013-06-26 13:24:00,83.8,77.3,30.01,SSW,206,14.0,24.0,81,0.00,,---,0.00,VWS V14.01,2013-06-26 17:24:00,
2013-06-26 13:28:00,83.6,77.2,30.01,SSW,200,15.0,18.0,81,0.00,,---,0.00,VWS V14.01,2013-06-26 17:28:00,
2013-06-26 13:34:00,83.6,77.5,30.01,SSW,199,14.0,22.0,82,0.00,,---,0.00,VWS V14.01,2013-06-26 17:34:00,
2013-06-26 13:39:00,83.7,77.6,30.01,South,180,10.0,22.0,82,0.00,,---,0.00,VWS V14.01,2013-06-26 17:39:00,
2013-06-26 13:44:00,83.9,77.8,30.00,SSW,200,9.0,22.0,82,0.00,,---,0.00,VWS V14.01,2013-06-26 17:44:00,
2013-06-26 13:49:00,83.7,77.6,30.00,SSW,209,18.0,22.0,82,0.00,,---,0.00,VWS V14.01,2013-06-26 17:49:00,
2013-06-26 13:54:00,83.5,77.4,30.00,SSW,196,15.0,27.0,82,0.00,,---,0.00,VWS V14.01,2013-06-26 17:54:00,
2013-06-26 13:59:00,83.5,77.4,30.00,SSW,211,21.0,24.0,82,0.00,,---,0.00,VWS V14.01,2013-06-26 17:59:00,
2013-06-26 14:04:00,83.2,77.1,29.99,SSW,213,19.0,25.0,82,0.00,,---,0.00,VWS V14.01,2013-06-26 18:04:00,
2013-06-26 14:09:00,83.0,76.9,29.99,SSW,205,21.0,27.0,82,0.00,,---,0.00,VWS V14.01,2013-06-26 18:09:00,
2013-06-26 14:14:00,83.0,77.3,29.99,SSW,204,21.0,27.0,83,0.00,,---,0.00,VWS V14.01,2013-06-26 18:14:00,
2013-06-26 14:19:00,82.9,77.2,29.99,SW,223,20.0,28.0,83,0.00,,---,0.00,VWS V14.01,2013-06-26 18:19:00,
2013-06-26 14:24:00,82.9,77.2,29.98,SW,223,19.0,30.0,83,0.00,,---,0.00,VWS V14.01,2013-06-26 18:24:00,
2013-06-26 14:29:00,82.8,77.1,29.98,SSW,200,17.0,29.0,83,0.00,,---,0.00,VWS V14.01,2013-06-26 18:29:00,
2013-06-26 14:34:00,82.7,77.0,29.98,South,191,19.0,29.0,83,0.00,,---,0.00,VWS V14.01,2013-06-26 18:34:00,
2013-06-26 14:39:00,82.9,77.2,29.98,SSW,213,14.0,29.0,83,0.00,,---,0.00,VWS V14.01,2013-06-26 18:39:00,
2013-06-26 14:44:00,82.9,76.8,29.98,SW,223,16.0,29.0,82,0.00,,---,0.00,VWS V14.01,2013-06-26 18:44:00,
2013-06-26 14:49:00,82.9,77.2,29.97,SSW,205,17.0,29.0,83,0.00,,---,0.00,VWS V14.01,2013-06-26 18:49:00,
2013-06-26 14:54:00,82.9,76.8,29.97,SSW,194,27.0,29.0,82,0.00,,---,0.00,VWS V14.01,2013-06-26 18:54:00,
2013-06-26 14:59:00,82.9,76.8,29.97,SSW,196,17.0,25.0,82,0.00,,---,0.00,VWS V14.01,2013-06-26 18:59:00,
2013-06-26 15:04:00,82.9,76.8,29.97,SSW,196,18.0,25.0,82,0.00,,---,0.00,VWS V14.01,2013-06-26 19:04:00,
2013-06-26 15:09:00,82.9,76.8,29.97,South,179,24.0,26.0,82,0.00,,---,0.00,VWS V14.01,2013-06-26 19:09:00,
2013-06-26 15:14:00,83.0,76.9,29.97,SSW,211,21.0,26.0,82,0.00,,---,0.00,VWS V14.01,2013-06-26 19:14:00,
2013-06-26 15:19:00,82.9,76.8,29.97,SSW,202,24.0,28.0,82,0.00,,---,0.00,VWS V14.01,2013-06-26 19:19:00,
2013-06-26 15:24:00,82.9,76.8,29.97,SSW,196,25.0,28.0,82,0.00,,---,0.00,VWS V14.01,2013-06-26 19:24:00,
2013-06-26 15:29:00,82.7,76.7,29.97,SSW,198,16.0,28.0,82,0.00,,---,0.00,VWS V14.01,2013-06-26 19:29:00,
2013-06-26 15:34:00,82.7,76.7,29.97,SSW,205,15.0,30.0,82,0.00,,---,0.00,VWS V14.01,2013-06-26 19:34:00,
2013-06-26 15:39:00,82.7,77.0,29.97,SSW,206,19.0,32.0,83,0.00,,---,0.00,VWS V14.01,2013-06-26 19:39:00,
2013-06-26 15:44:00,82.5,76.8,29.97,SSW,205,25.0,32.0,83,0.00,,---,0.00,VWS V14.01,2013-06-26 19:44:00,
2013-06-26 15:49:00,82.6,76.9,29.97,SSW,211,19.0,33.0,83,0.00,,---,0.00,VWS V14.01,2013-06-26 19:49:00,
2013-06-26 15:54:00,82.5,76.8,29.96,SW,225,14.0,33.0,83,0.00,,---,0.00,VWS V14.01,2013-06-26 19:54:00,
2013-06-26 15:59:00,82.2,76.9,29.97,SSW,207,18.0,26.0,84,0.00,,---,0.00,VWS V14.01,2013-06-26 19:59:00,
2013-06-26 16:04:00,82.2,76.9,29.96,SSW,206,18.0,29.0,84,0.00,,---,0.00,VWS V14.01,2013-06-26 20:04:00,
2013-06-26 16:09:00,82.5,77.2,29.95,SW,215,19.0,29.0,84,0.00,,---,0.00,VWS V14.01,2013-06-26 20:09:00,
2013-06-26 16:14:00,82.4,77.1,29.95,SSW,206,20.0,30.0,84,0.00,,---,0.00,VWS V14.01,2013-06-26 20:14:00,
2013-06-26 16:20:00,82.4,77.4,29.95,SSW,209,26.0,30.0,85,0.00,,---,0.00,VWS V14.01,2013-06-26 20:20:00,
2013-06-26 16:25:00,82.3,77.3,29.96,SSW,207,18.0,33.0,85,0.00,,---,0.00,VWS V14.01,2013-06-26 20:25:00,
2013-06-26 16:30:00,81.7,76.8,29.96,SW,229,25.0,28.0,85,0.00,,---,0.00,VWS V14.01,2013-06-26 20:30:00,
2013-06-26 16:35:00,81.8,77.2,29.96,SW,221,17.0,29.0,86,0.00,,---,0.00,VWS V14.01,2013-06-26 20:35:00,
2013-06-26 16:40:00,81.9,77.3,29.96,SSW,202,12.0,29.0,86,0.00,,---,0.00,VWS V14.01,2013-06-26 20:40:00,
2013-06-26 16:45:00,81.4,76.8,29.96,SW,221,22.0,29.0,86,0.00,,---,0.00,VWS V14.01,2013-06-26 20:45:00,
2013-06-26 16:50:00,81.0,76.8,29.96,SSW,204,17.0,33.0,87,0.00,,---,0.00,VWS V14.01,2013-06-26 20:50:00,
2013-06-26 16:55:00,80.7,76.8,29.96,SW,214,19.0,33.0,88,0.00,,---,0.00,VWS V14.01,2013-06-26 20:55:00,
2013-06-26 17:00:00,80.5,76.6,29.96,SSW,208,16.0,27.0,88,0.00,,---,0.00,VWS V14.01,2013-06-26 21:00:00,
2013-06-26 17:05:00,80.4,76.9,29.97,SSW,205,11.0,28.0,89,0.00,,---,0.00,VWS V14.01,2013-06-26 21:05:00,
2013-06-26 17:10:00,80.3,76.8,29.96,SSW,209,21.0,28.0,89,0.00,,---,0.00,VWS V14.01,2013-06-26 21:10:00,
2013-06-26 17:15:00,80.3,76.8,29.96,SW,216,20.0,31.0,89,0.00,,---,0.00,VWS V14.01,2013-06-26 21:15:00,
2013-06-26 17:20:00,80.1,76.9,29.96,SW,222,15.0,31.0,90,0.00,,---,0.00,VWS V14.01,2013-06-26 21:20:00,
2013-06-26 17:25:00,80.0,76.8,29.97,SSW,196,23.0,31.0,90,0.00,,---,0.00,VWS V14.01,2013-06-26 21:25:00,
2013-06-26 17:30:00,80.0,76.8,29.97,West,277,15.0,22.0,90,0.00,,---,0.00,VWS V14.01,2013-06-26 21:30:00,
2013-06-26 17:36:00,80.0,76.8,29.95,SSW,202,16.0,23.0,90,0.00,,---,0.00,VWS V14.01,2013-06-26 21:36:00,
2013-06-26 17:41:00,80.1,76.9,29.95,WSW,253,15.0,24.0,90,0.00,,---,0.00,VWS V14.01,2013-06-26 21:41:00,
2013-06-26 17:46:00,80.1,76.9,29.94,SSW,209,7.0,24.0,90,0.00,,---,0.00,VWS V14.01,2013-06-26 21:46:00,
2013-06-26 17:51:00,80.1,76.9,29.94,SSW,202,14.0,24.0,90,0.00,,---,0.00,VWS V14.01,2013-06-26 21:51:00,
2013-06-26 17:56:00,80.0,76.8,29.94,SW,234,15.0,24.0,90,0.00,,---,0.00,VWS V14.01,2013-06-26 21:56:00,
2013-06-26 18:01:00,79.8,76.3,29.94,SSW,213,11.0,19.0,89,0.00,,---,0.00,VWS V14.01,2013-06-26 22:01:00,
2013-06-26 18:06:00,79.8,76.3,29.94,West,261,13.0,21.0,89,0.00,,---,0.00,VWS V14.01,2013-06-26 22:06:00,
2013-06-26 18:11:00,79.8,75.9,29.95,SW,219,12.0,21.0,88,0.00,,---,0.00,VWS V14.01,2013-06-26 22:11:00,
2013-06-26 18:16:00,79.9,75.7,29.95,SW,222,11.0,21.0,87,0.00,,---,0.00,VWS V14.01,2013-06-26 22:16:00,
2013-06-26 18:21:00,79.9,75.3,29.95,SSW,197,11.0,21.0,86,0.00,,---,0.00,VWS V14.01,2013-06-26 22:21:00,
2013-06-26 18:26:00,79.7,75.2,29.95,SSW,202,11.0,21.0,86,0.00,,---,0.00,VWS V14.01,2013-06-26 22:26:00,
2013-06-26 18:31:00,79.5,74.9,29.95,SW,228,14.0,16.0,86,0.00,,---,0.00,VWS V14.01,2013-06-26 22:31:00,
2013-06-26 18:36:00,79.2,74.3,29.95,SW,219,16.0,17.0,85,0.00,,---,0.00,VWS V14.01,2013-06-26 22:36:00,
2013-06-26 18:41:00,79.1,74.2,29.95,WSW,251,10.0,17.0,85,0.00,,---,0.00,VWS V14.01,2013-06-26 22:41:00,
2013-06-26 18:47:00,79.1,74.2,29.96,SSW,202,7.0,17.0,85,0.00,,---,0.00,VWS V14.01,2013-06-26 22:47:00,
2013-06-26 18:52:00,79.2,74.3,29.96,SW,236,11.0,17.0,85,0.00,,---,0.00,VWS V14.01,2013-06-26 22:52:00,
2013-06-26 18:57:00,79.4,74.5,29.97,SW,223,12.0,17.0,85,0.00,,---,0.00,VWS V14.01,2013-06-26 22:57:00,
2013-06-26 19:02:00,79.4,74.2,29.96,WSW,244,11.0,16.0,84,0.00,,---,0.00,VWS V14.01,2013-06-26 23:02:00,
2013-06-26 19:07:00,79.4,74.2,29.97,SW,223,10.0,16.0,84,0.00,,---,0.00,VWS V14.01,2013-06-26 23:07:00,
2013-06-26 19:12:00,79.4,74.2,29.97,SW,220,12.0,16.0,84,0.00,,---,0.00,VWS V14.01,2013-06-26 23:12:00,
2013-06-26 19:17:00,79.2,73.6,29.96,WSW,240,17.0,19.0,83,0.00,,---,0.00,VWS V14.01,2013-06-26 23:17:00,
2013-06-26 19:22:00,79.1,73.1,29.96,SW,218,14.0,19.0,82,0.00,,---,0.00,VWS V14.01,2013-06-26 23:22:00,
2013-06-26 19:27:00,79.1,73.5,29.96,WSW,238,13.0,19.0,83,0.00,,---,0.00,VWS V14.01,2013-06-26 23:27:00,
2013-06-26 19:32:00,79.1,73.5,29.96,SW,217,13.0,19.0,83,0.00,,---,0.00,VWS V14.01,2013-06-26 23:32:00,
2013-06-26 19:37:00,79.2,73.6,29.96,West,263,6.0,19.0,83,0.00,,---,0.00,VWS V14.01,2013-06-26 23:37:00,
2013-06-26 19:42:00,79.2,73.6,29.96,West,264,6.0,19.0,83,0.00,,---,0.00,VWS V14.01,2013-06-26 23:42:00,
2013-06-26 19:47:00,79.0,73.8,29.96,WSW,244,6.0,19.0,84,0.00,,---,0.00,VWS V14.01,2013-06-26 23:47:00,
2013-06-26 19:52:00,78.9,74.0,29.96,WSW,237,8.0,19.0,85,0.00,,---,0.00,VWS V14.01,2013-06-26 23:52:00,
2013-06-26 19:57:00,78.9,74.4,29.96,West,277,9.0,19.0,86,0.00,,---,0.00,VWS V14.01,2013-06-26 23:57:00,
2013-06-26 20:02:00,78.8,74.3,29.96,West,263,4.0,13.0,86,0.00,,---,0.00,VWS V14.01,2013-06-27 00:02:00,
2013-06-26 20:07:00,78.8,74.6,29.96,West,273,6.0,13.0,87,0.00,,---,0.00,VWS V14.01,2013-06-27 00:07:00,
2013-06-26 20:12:00,78.8,74.6,29.96,SW,232,3.0,13.0,87,0.00,,---,0.00,VWS V14.01,2013-06-27 00:12:00,
2013-06-26 20:17:00,78.8,74.9,29.96,WSW,253,9.0,13.0,88,0.00,,---,0.00,VWS V14.01,2013-06-27 00:17:00,
2013-06-26 20:22:00,78.8,75.3,29.96,WSW,254,4.0,13.0,89,0.00,,---,0.00,VWS V14.01,2013-06-27 00:22:00,
2013-06-26 20:27:00,78.8,75.3,29.96,West,259,5.0,13.0,89,0.00,,---,0.00,VWS V14.01,2013-06-27 00:27:00,
2013-06-26 20:32:00,78.8,75.3,29.95,WSW,238,9.0,11.0,89,0.00,,---,0.00,VWS V14.01,2013-06-27 00:32:00,
2013-06-26 20:37:00,78.8,75.3,29.95,West,264,5.0,11.0,89,0.00,,---,0.00,VWS V14.01,2013-06-27 00:37:00,
2013-06-26 20:43:00,78.9,75.7,29.95,WSW,242,5.0,11.0,90,0.00,,---,0.00,VWS V14.01,2013-06-27 00:43:00,
2013-06-26 20:48:00,78.9,75.7,29.95,SW,234,5.0,11.0,90,0.00,,---,0.00,VWS V14.01,2013-06-27 00:48:00,
2013-06-26 20:53:00,78.9,75.7,29.95,West,268,6.0,11.0,90,0.00,,---,0.00,VWS V14.01,2013-06-27 00:53:00,
2013-06-26 20:58:00,79.0,75.8,29.95,SW,229,4.0,6.0,90,0.00,,---,0.00,VWS V14.01,2013-06-27 00:58:00,
2013-06-26 21:03:00,79.1,75.9,29.95,WSW,257,4.0,10.0,90,0.00,,---,0.00,VWS V14.01,2013-06-27 01:03:00,
2013-06-26 21:08:00,79.1,75.9,29.96,WSW,239,13.0,16.0,90,0.00,,---,0.00,VWS V14.01,2013-06-27 01:08:00,
2013-06-26 21:13:00,79.2,76.0,29.96,WSW,249,10.0,18.0,90,0.00,,---,0.00,VWS V14.01,2013-06-27 01:13:00,
2013-06-26 21:18:00,79.4,75.9,29.95,SW,229,15.0,18.0,89,0.00,,---,0.00,VWS V14.01,2013-06-27 01:18:00,
2013-06-26 21:23:00,79.5,76.0,29.96,WSW,240,11.0,18.0,89,0.00,,---,0.00,VWS V14.01,2013-06-27 01:23:00,
2013-06-26 21:28:00,79.5,76.0,29.96,WSW,248,6.0,13.0,89,0.00,,---,0.00,VWS V14.01,2013-06-27 01:28:00,
2013-06-26 21:33:00,79.5,76.0,29.97,SW,231,11.0,14.0,89,0.00,,---,0.00,VWS V14.01,2013-06-27 01:33:00,
2013-06-26 21:38:00,79.5,76.3,29.97,WSW,248,8.0,16.0,90,0.00,,---,0.00,VWS V14.01,2013-06-27 01:38:00,
2013-06-26 21:43:00,79.4,76.2,29.97,WSW,256,10.0,16.0,90,0.00,,---,0.00,VWS V14.01,2013-06-27 01:43:00,
2013-06-26 21:48:00,79.3,75.8,29.97,WSW,253,9.0,16.0,89,0.00,,---,0.00,VWS V14.01,2013-06-27 01:48:00,
2013-06-26 21:53:00,79.3,75.8,29.97,SSW,209,9.0,16.0,89,0.00,,---,0.00,VWS V14.01,2013-06-27 01:53:00,
2013-06-26 21:58:00,79.4,76.2,29.97,West,259,9.0,12.0,90,0.00,,---,0.00,VWS V14.01,2013-06-27 01:58:00,
2013-06-26 22:03:00,79.3,75.8,29.97,West,277,6.0,14.0,89,0.00,,---,0.00,VWS V14.01,2013-06-27 02:03:00,
2013-06-26 22:08:00,79.3,75.8,29.98,West,275,9.0,14.0,89,0.00,,---,0.00,VWS V14.01,2013-06-27 02:08:00,
2013-06-26 22:13:00,79.4,75.9,29.98,WSW,243,9.0,16.0,89,0.00,,---,0.00,VWS V14.01,2013-06-27 02:13:00,
2013-06-26 22:18:00,79.4,75.9,29.98,WSW,255,14.0,16.0,89,0.00,,---,0.00,VWS V14.01,2013-06-27 02:18:00,
2013-06-26 22:23:00,79.4,75.9,29.97,SW,215,13.0,16.0,89,0.00,,---,0.00,VWS V14.01,2013-06-27 02:23:00,
2013-06-26 22:28:00,79.3,75.8,29.97,WSW,247,4.0,13.0,89,0.00,,---,0.00,VWS V14.01,2013-06-27 02:28:00,
2013-06-26 22:33:00,79.3,75.8,29.97,West,269,4.0,13.0,89,0.00,,---,0.00,VWS V14.01,2013-06-27 02:33:00,
2013-06-26 22:38:00,79.3,75.8,29.97,SW,233,7.0,16.0,89,0.00,,---,0.00,VWS V14.01,2013-06-27 02:38:00,
2013-06-26 22:43:00,79.3,75.8,29.97,SW,223,6.0,16.0,89,0.00,,---,0.00,VWS V14.01,2013-06-27 02:43:00,
2013-06-26 22:48:00,79.3,75.8,29.96,SW,233,10.0,16.0,89,0.00,,---,0.00,VWS V14.01,2013-06-27 02:48:00,
2013-06-26 22:53:00,79.3,75.8,29.96,WSW,237,9.0,16.0,89,0.00,,---,0.00,VWS V14.01,2013-06-27 02:53:00,
2013-06-26 22:59:00,79.3,75.8,29.95,West,261,9.0,17.0,89,0.00,,---,0.00,VWS V14.01,2013-06-27 02:59:00,
2013-06-26 23:04:00,79.2,75.7,29.95,SW,234,10.0,17.0,89,0.00,,---,0.00,VWS V14.01,2013-06-27 03:04:00,
2013-06-26 23:09:00,78.5,74.7,29.95,SW,236,12.0,19.0,88,0.00,,---,0.00,VWS V14.01,2013-06-27 03:09:00,
2013-06-26 23:14:00,78.8,75.3,29.95,WSW,256,15.0,19.0,89,0.00,,---,0.00,VWS V14.01,2013-06-27 03:14:00,
2013-06-26 23:19:00,79.1,75.9,29.95,West,273,12.0,19.0,90,0.00,,---,0.00,VWS V14.01,2013-06-27 03:19:00,
2013-06-26 23:24:00,79.2,76.3,29.96,West,278,17.0,19.0,91,0.00,,---,0.00,VWS V14.01,2013-06-27 03:24:00,
2013-06-26 23:29:00,78.6,75.8,29.95,WNW,293,15.0,20.0,91,0.00,,---,0.00,VWS V14.01,2013-06-27 03:29:00,
2013-06-26 23:34:00,77.4,73.2,29.96,WNW,296,18.0,22.0,87,0.00,,---,0.00,VWS V14.01,2013-06-27 03:34:00,
2013-06-26 23:39:00,75.7,71.6,29.96,WNW,290,17.0,26.0,87,0.00,,---,0.00,VWS V14.01,2013-06-27 03:39:00,
2013-06-26 23:44:00,74.3,71.2,29.95,WNW,296,16.0,26.0,90,0.00,,---,0.00,VWS V14.01,2013-06-27 03:44:00,
2013-06-26 23:49:00,74.1,71.0,29.95,WNW,288,12.0,26.0,90,0.00,,---,0.00,VWS V14.01,2013-06-27 03:49:00,
2013-06-26 23:54:00,74.0,70.9,29.95,West,277,14.0,26.0,90,0.01,,---,0.01,VWS V14.01,2013-06-27 03:54:00,
2013-06-26 23:59:00,74.1,71.0,29.95,West,276,7.0,14.0,90,0.01,,---,0.00,VWS V14.01,2013-06-27 03:59:00,